星链-30412 (STARLINK-30412 )

导读

STARLINK-30412是美国太空探索技术公司SpaceX于2023年9月12日发射的Starlink星链卫星,归属美国Starlink星座组网项目,这类卫星主要为全球偏远地区、网络不发达区域以及海洋、航空等移动载体提供高速宽带互联网服务,进一步扩展了星链星座的服务覆盖范围与通信能力。

Basic Information
目录编号:
57854
目录名称:
STARLINK-30412
国际标识:
2023-141Q
轨道中心:
EARTH
卫星名称:
星链-30412
卫星全名:
星链-30412 (STARLINK-30412 )
卫星状态:
在轨 (已飞行1088 天)
发射日期:
2023-09-12 UTC
国别 :
美国 (US)
星等 :
--
Orbit Information
数据来源 国际轨道数据
星历时间: 2026-09-04T02:51:31+0800
10小时前
查看轨道信息
半长轴: 6840.887km
偏心率: 0.000142
轨道倾角: 53.160°
近地点辐角 81.777°
升交点赤经 175.587°
平近点角 278.339°
近地点: 461.778km
远地点: 463.722km
周期: 93.849分钟
每日圈数: 15.343846
Detailed Information
固有亮度:
5
最大亮度:
0.3
卫星平台:
Starlink v2.0 mini
覆盖范围:
全球
运营商:
太空探索技术公司
运营商所在国:
美国
制造商(研发单位):
太空探索技术公司
制造商所在国:
美国
使用方式:
暂无
Satellite Introduction
星链(Starlink)计划是由太空探索技术公司(SpaceX)提出的一个巨型低轨卫星互联网星座项目,计划在2019年至2024年间在太空搭建由约1.2万颗卫星组成的“星链”网络,其中1584颗将部署在地球上空550千米处的近地轨道,并从2020年开始工作。该卫星仍在工作。
2D Orbit Map
3D Orbit Map
Orbit Altitude Analysis Chart
Orbit Inclination Analysis Chart
Orbit Comprehensive Analysis Chart
View Comprehensive Chart
Conjunction Data List
Event ID Objects TCA Miss Dist (km) Collision Risk Probability Collision Risk Index (CRI) Action
CDM_260904-112405-785406-932222
OBJECT C (69322)
2026-09-04T
11:24:27+0000
0.884 km
远距离
3.483574E-5 中风险 0.66
CDM_260904-182205-785406-851022
2026-09-04T
18:22:46+0000
1.222 km
极远距离
1.169197E-5 中风险 0.56
CDM_260904-164805-785406-851022
2026-09-04T
16:48:58+0000
1.552 km
极远距离
5.220909E-6 低风险 0.49
CDM_260905-003405-231105-785421
2026-09-05T
00:34:34+0000
2.185 km
极远距离
2.053409E-6 低风险 0.41
CDM_260905-045305-785406-564921
2026-09-05T
04:53:24+0000
1.550 km
极远距离
1.94186E-6 低风险 0.41
CDM_260904-204005-231105-785421
2026-09-04T
20:40:01+0000
2.480 km
极远距离
1.589423E-6 低风险 0.39